Hourly Weather Holozubyntsi

Today, 13 April, Tuesday

Time Temperature Precipitation Wind Pressure Humidity
00:00 +9°C° 0 mm 2 mps 739 mmHg 53%
01:00 +9°C° 0 mm 2 mps 739 mmHg 56%
02:00 +9°C° 0 mm 1 mps 739 mmHg 58%
03:00 +8°C° 0 mm 2 mps 739 mmHg 61%
04:00 +7°C° 0 mm 2 mps 739 mmHg 64%
05:00 +7°C° 0 mm 2 mps 739 mmHg 66%
06:00 +8°C° 0 mm 2 mps 739 mmHg 63%
07:00 +9°C° 0 mm 2 mps 739 mmHg 61%
08:00 +12°C° 0 mm 2 mps 739 mmHg 58%
09:00 +13°C° 0 mm 2 mps 739 mmHg 52%
10:00 +15°C° 0 mm 2 mps 739 mmHg 47%
11:00 +16°C° 0 mm 2 mps 739 mmHg 41%
12:00 +17°C° 0 mm 2 mps 738 mmHg 39%
13:00 +19°C° 0 mm 1 mps 738 mmHg 37%
14:00 +20°C° 0 mm 1 mps 738 mmHg 35%
15:00 +20°C° 0 mm 1 mps 737 mmHg 35%
16:00 +19°C° 0 mm 1 mps 737 mmHg 36%
17:00 +19°C° 0 mm 1 mps 737 mmHg 37%
18:00 +16°C° 0 mm 2 mps 737 mmHg 49%
19:00 +13°C° 0 mm 3 mps 737 mmHg 59%
20:00 +11°C° 0 mm 3 mps 737 mmHg 69%
21:00 +11°C° 0 mm 3 mps 737 mmHg 71%
22:00 +10°C° 0 mm 3 mps 736 mmHg 74%
23:00 +9°C° 0 mm 2 mps 736 mmHg 76%

Tomorrow, 14 April, Wednesday

Time Temperature Precipitation Wind Pressure Humidity
00:00 +9°C° 0 mm 2 mps 736 mmHg 78%
01:00 +8°C° 0 mm 2 mps 736 mmHg 81%
02:00 +8°C° 0 mm 2 mps 736 mmHg 83%
03:00 +8°C° 0 mm 2 mps 736 mmHg 84%
04:00 +8°C° 0 mm 2 mps 735 mmHg 84%
05:00 +8°C° 0 mm 2 mps 735 mmHg 85%
06:00 +8°C° 0.1 mm 2 mps 735 mmHg 83%
07:00 +8°C° 0.1 mm 2 mps 735 mmHg 81%
08:00 +9°C° 0.1 mm 2 mps 736 mmHg 79%
09:00 +10°C° 0 mm 3 mps 735 mmHg 73%
10:00 +10°C° 0 mm 3 mps 735 mmHg 67%
11:00 +11°C° 0 mm 4 mps 735 mmHg 62%
12:00 +11°C° 0 mm 4 mps 735 mmHg 61%
13:00 +12°C° 0 mm 4 mps 735 mmHg 61%
14:00 +12°C° 0 mm 4 mps 735 mmHg 60%
15:00 +11°C° 0 mm 4 mps 735 mmHg 64%
16:00 +10°C° 0 mm 4 mps 735 mmHg 67%
17:00 +10°C° 0 mm 4 mps 734 mmHg 70%
18:00 +8°C° 0 mm 4 mps 735 mmHg 74%
19:00 +7°C° 0 mm 4 mps 735 mmHg 77%
20:00 +6°C° 0 mm 4 mps 735 mmHg 81%
21:00 +6°C° 0.1 mm 4 mps 735 mmHg 83%
22:00 +5°C° 0.1 mm 4 mps 735 mmHg 85%
23:00 +5°C° 0.1 mm 4 mps 735 mmHg 87%

Day after tomorrow, 15 April, Thursday

Time Temperature Precipitation Wind Pressure Humidity
00:00 +5°C° 0.2 mm 4 mps 734 mmHg 88%
01:00 +4°C° 0.2 mm 4 mps 734 mmHg 90%
02:00 +4°C° 0.2 mm 4 mps 734 mmHg 91%
03:00 +4°C° 1.2 mm 4 mps 734 mmHg 92%
04:00 +4°C° 1.2 mm 4 mps 734 mmHg 93%
05:00 +4°C° 1.2 mm 4 mps 734 mmHg 94%
06:00 +4°C° 0.6 mm 4 mps 734 mmHg 94%
07:00 +3°C° 0.6 mm 4 mps 734 mmHg 94%
08:00 +2°C° 0.6 mm 5 mps 734 mmHg 94%
09:00 +2°C° 0.3 mm 5 mps 734 mmHg 94%
10:00 +3°C° 0.3 mm 5 mps 734 mmHg 93%
11:00 +3°C° 0.3 mm 5 mps 734 mmHg 93%
12:00 +3°C° 0.2 mm 5 mps 734 mmHg 93%
13:00 +3°C° 0.2 mm 5 mps 734 mmHg 93%
14:00 +2°C° 0.2 mm 6 mps 734 mmHg 93%
15:00 +2°C° 0.2 mm 6 mps 734 mmHg 93%
16:00 +2°C° 0.2 mm 6 mps 734 mmHg 93%
17:00 +1°C° 0.2 mm 6 mps 734 mmHg 93%
18:00 +1°C° 0.2 mm 6 mps 734 mmHg 93%
19:00 +1°C° 0.2 mm 6 mps 734 mmHg 94%
20:00 +1°C° 0.2 mm 6 mps 735 mmHg 94%
21:00 +1°C° 0.3 mm 6 mps 734 mmHg 94%
22:00 -1°C° 0.3 mm 6 mps 734 mmHg 94%
23:00 -1°C° 0.3 mm 6 mps 734 mmHg 94%

16 April, Friday

Time Temperature Precipitation Wind Pressure Humidity
00:00 -1°C° 0.4 mm 6 mps 734 mmHg 94%
01:00 -1°C° 0.4 mm 6 mps 734 mmHg 94%
02:00 -1°C° 0.4 mm 6 mps 733 mmHg 95%
03:00 -1°C° 0.3 mm 6 mps 733 mmHg 95%
04:00 -1°C° 0.3 mm 6 mps 733 mmHg 95%
05:00 -1°C° 0.3 mm 6 mps 733 mmHg 95%
06:00 -1°C° 0.4 mm 6 mps 733 mmHg 95%
07:00 -1°C° 0.4 mm 6 mps 733 mmHg 95%
08:00 -1°C° 0.4 mm 6 mps 733 mmHg 95%
09:00 +1°C° 0.5 mm 6 mps 733 mmHg 95%
10:00 +1°C° 0.5 mm 6 mps 733 mmHg 95%
11:00 +1°C° 0.5 mm 6 mps 733 mmHg 94%
12:00 +1°C° 0.7 mm 6 mps 733 mmHg 94%
13:00 +2°C° 0.7 mm 6 mps 733 mmHg 94%
14:00 +2°C° 0.7 mm 6 mps 733 mmHg 94%
15:00 +2°C° 0.4 mm 6 mps 734 mmHg 94%
16:00 +2°C° 0.4 mm 6 mps 734 mmHg 95%
17:00 +2°C° 0.4 mm 6 mps 734 mmHg 95%
18:00 +2°C° 0.3 mm 5 mps 735 mmHg 95%
19:00 +2°C° 0.3 mm 5 mps 735 mmHg 95%
20:00 +3°C° 0.3 mm 4 mps 736 mmHg 95%
21:00 +3°C° 0.1 mm 4 mps 736 mmHg 96%
22:00 +3°C° 0.1 mm 4 mps 736 mmHg 96%
23:00 +3°C° 0.1 mm 4 mps 737 mmHg 96%

17 April, Saturday

Time Temperature Precipitation Wind Pressure Humidity
00:00 +3°C° 0.3 mm 4 mps 737 mmHg 96%
01:00 +1°C° 0.3 mm 4 mps 737 mmHg 96%
02:00 +2°C° 0.3 mm 3 mps 737 mmHg 97%
03:00 +2°C° 0.3 mm 3 mps 737 mmHg 97%
04:00 +2°C° 0.3 mm 3 mps 738 mmHg 96%
05:00 +4°C° 0.3 mm 2 mps 738 mmHg 96%
06:00 +4°C° 0.2 mm 2 mps 738 mmHg 95%
07:00 +4°C° 0.2 mm 2 mps 739 mmHg 93%
08:00 +4°C° 0.2 mm 2 mps 739 mmHg 91%
09:00 +5°C° 0.1 mm 2 mps 739 mmHg 86%
10:00 +6°C° 0.1 mm 2 mps 740 mmHg 81%
11:00 +6°C° 0.1 mm 2 mps 740 mmHg 75%
12:00 +7°C° 0.1 mm 2 mps 740 mmHg 74%
13:00 +7°C° 0.1 mm 2 mps 740 mmHg 72%
14:00 +7°C° 0.1 mm 2 mps 741 mmHg 70%
15:00 +7°C° 0 mm 2 mps 741 mmHg 71%
16:00 +7°C° 0 mm 2 mps 741 mmHg 71%
17:00 +7°C° 0 mm 2 mps 741 mmHg 72%
18:00 +7°C° 0 mm 2 mps 741 mmHg 77%
19:00 +6°C° 0 mm 2 mps 741 mmHg 82%
20:00 +7°C° 0 mm 1 mps 741 mmHg 87%
21:00 +6°C° 0 mm 1 mps 741 mmHg 88%
22:00 +6°C° 0 mm 1 mps 742 mmHg 89%
23:00 +6°C° 0 mm 1 mps 742 mmHg 90%

18 April, Sunday

Time Temperature Precipitation Wind Pressure Humidity
00:00 +5°C° 0 mm 0 mps 742 mmHg 90%
01:00 +5°C° 0 mm 0 mps 742 mmHg 89%
02:00 +5°C° 0 mm 0 mps 742 mmHg 89%
03:00 +5°C° 0 mm 0 mps 742 mmHg 88%
04:00 +5°C° 0 mm 0 mps 742 mmHg 88%
05:00 +6°C° 0 mm 1 mps 742 mmHg 87%
06:00 +6°C° 0 mm 1 mps 742 mmHg 85%
07:00 +7°C° 0 mm 1 mps 742 mmHg 83%
08:00 +7°C° 0 mm 1 mps 743 mmHg 80%
09:00 +7°C° 0 mm 2 mps 743 mmHg 76%
10:00 +8°C° 0 mm 2 mps 743 mmHg 71%
11:00 +9°C° 0 mm 3 mps 743 mmHg 67%
12:00 +9°C° 0 mm 3 mps 743 mmHg 66%
13:00 +8°C° 0 mm 4 mps 743 mmHg 64%
14:00 +10°C° 0 mm 4 mps 743 mmHg 63%
15:00 +10°C° 0 mm 4 mps 743 mmHg 65%
16:00 +10°C° 0 mm 3 mps 743 mmHg 66%
17:00 +10°C° 0 mm 2 mps 743 mmHg 68%
18:00 +9°C° 0 mm 2 mps 743 mmHg 71%
19:00 +9°C° 0 mm 2 mps 743 mmHg 74%
20:00 +8°C° 0 mm 2 mps 743 mmHg 77%
21:00 +8°C° 0 mm 2 mps 743 mmHg 79%
22:00 +8°C° 0 mm 2 mps 743 mmHg 80%
23:00 +8°C° 0 mm 2 mps 743 mmHg 82%
Show more